Location: Bonny Doon Airfield
(37.0704°N, 122.1252°W)
Time: 09:16:59
(UTC-08:00)

Vanguard 1 Rocket - Pass Details

Date: 31 October 2017
Orbit: 655 x 4222 km, 34.3° (Epoch: 16 November)

Event Time Altitude Azimuth Distance (km) Brightness Sun altitude
Rises 10:02:58 0° 279° (W) 4,505 10.5 25.0°
Reaches altitude 10° 10:06:51 10° 271° (W) 3,043 9.8 25.6°
Maximum altitude 10:12:48 33° 209° (SSW) 1,340 8.7 26.4°
Drops below altitude 10° 10:17:00 10° 144° (SE) 2,126 11.1 27.0°
Sets 10:19:15 0° 133° (SE) 2,967 11.3 27.3°
